| time (UTC) | temp F | wind direction | speed MPH | gust MPH | rain 1hr in | rain 24hr in | rain mn in | humidity % | barometer mb |
| 20260504231547 | 72 | 162 | 2.0 | 11.0 | 0.00 | 0.00 | 0.00 | 56 | 1001.3 |
| 20260504230047 | 73 | 100 | 6.0 | 22.0 | 0.00 | 0.00 | 0.00 | 50 | 1001.4 |
| 20260504224547 | 74 | 236 | 3.0 | 11.0 | 0.00 | 0.00 | 0.00 | 48 | 1001.6 |
| 20260504223047 | 74 | 269 | 4.0 | 16.0 | 0.00 | 0.00 | 0.00 | 47 | 1001.7 |
| 20260504221545 | 75 | 271 | 7.0 | 19.0 | 0.00 | 0.00 | 0.00 | 45 | 1001.8 |
| 20260504220045 | 75 | 205 | 9.0 | 24.0 | 0.00 | 0.00 | 0.00 | 44 | 1001.6 |
| 20260504214542 | 76 | 268 | 5.0 | 19.0 | 0.00 | 0.00 | 0.00 | 47 | 1001.4 |
| 20260504213041 | 76 | 167 | 5.0 | 20.0 | 0.00 | 0.00 | 0.00 | 51 | 1001.6 |
| 20260504211541 | 77 | 274 | 3.0 | 17.0 | 0.00 | 0.00 | 0.00 | 52 | 1001.4 |
| 20260504210040 | 76 | 246 | 5.0 | 17.0 | 0.00 | 0.00 | 0.00 | 53 | 1001.3 |
| 20260504204537 | 76 | 261 | 5.0 | 16.0 | 0.00 | 0.00 | 0.00 | 57 | 1001.3 |
| 20260504203035 | 77 | 159 | 6.0 | 19.0 | 0.00 | 0.00 | 0.00 | 60 | 1001.4 |
| 20260504201534 | 76 | 165 | 3.0 | 11.0 | 0.00 | 0.00 | 0.00 | 64 | 1001.6 |
| 20260504200032 | 76 | 304 | 2.0 | 11.0 | 0.00 | 0.00 | 0.00 | 67 | 1001.9 |
| 20260504194532 | 75 | 317 | 4.0 | 13.0 | 0.00 | 0.00 | 0.00 | 67 | 1002.0 |
| 20260504193028 | 74 | 149 | 5.0 | 18.0 | 0.00 | 0.00 | 0.00 | 67 | 1002.2 |
| 20260504191527 | 75 | 160 | 2.0 | 14.0 | 0.00 | 0.00 | 0.00 | 66 | 1002.5 |
| 20260504190027 | 76 | 269 | 3.0 | 12.0 | 0.00 | 0.00 | 0.00 | 71 | 1002.4 |
| 20260504184525 | 76 | 290 | 5.0 | 12.0 | 0.00 | 0.00 | 0.00 | 74 | 1002.5 |
| 20260504183020 | 74 | 277 | 5.0 | 13.0 | 0.00 | 0.00 | 0.00 | 70 | 1002.7 |
| 20260504181518 | 74 | 307 | 3.0 | 15.0 | 0.00 | 0.00 | 0.00 | 78 | 1003.0 |
| 20260504180017 | 74 | 277 | 1.0 | 14.0 | 0.00 | 0.00 | 0.00 | 80 | 1003.3 |
| 20260504174513 | 73 | 267 | 2.0 | 9.0 | 0.00 | 0.00 | 0.00 | 78 | 1003.3 |
| 20260504173010 | 72 | 105 | 4.0 | 10.0 | 0.00 | 0.00 | 0.00 | 76 | 1003.5 |
| 20260504171507 | 72 | 267 | 2.0 | 10.0 | 0.00 | 0.00 | 0.00 | 71 | 1004.0 |
| 20260504081538 | 47 | 166 | 0.0 | 2.0 | 0.00 | 0.00 | 0.00 | 100 | 1006.8 |
| 20260504050015 | 45 | 162 | 0.0 | 5.0 | 0.00 | 0.00 | 0.00 | 100 | 1009.3 |
| 20260504044519 | 45 | 180 | 0.0 | 3.0 | 0.00 | 0.00 | 0.00 | 100 | 1009.4 |
| 20260504043012 | 45 | 167 | 1.0 | 3.0 | 0.00 | 0.00 | 0.00 | 100 | 1009.3 |
| 20260504041513 | 46 | 166 | 0.0 | 3.0 | 0.00 | 0.00 | 0.00 | 100 | 1009.4 |
| 20260504040013 | 46 | 161 | 1.0 | 3.0 | 0.00 | 0.00 | 0.00 | 100 | 1009.6 |
| 20260504034507 | 46 | 158 | 1.0 | 3.0 | 0.00 | 0.00 | 0.00 | 100 | 1009.8 |
| 20260504033011 | 46 | 176 | 2.0 | 6.0 | 0.00 | 0.00 | 0.00 | 100 | 1009.9 |
| 20260504031504 | 46 | 163 | 2.0 | 6.0 | 0.00 | 0.00 | 0.00 | 100 | 1010.0 |
| 20260504030005 | 47 | 159 | 3.0 | 6.0 | 0.00 | 0.00 | 0.00 | 100 | 1010.1 |
| 20260504024503 | 47 | 184 | 3.0 | 6.0 | 0.00 | 0.00 | 0.00 | 100 | 1010.2 |
| 20260504023002 | 47 | 157 | 2.0 | 9.0 | 0.00 | 0.00 | 0.00 | 100 | 1010.3 |
| 20260504021501 | 47 | 155 | 3.0 | 7.0 | 0.00 | 0.00 | 0.00 | 100 | 1010.2 |
| 20260504020001 | 47 | 165 | 3.0 | 9.0 | 0.00 | 0.00 | 0.00 | 100 | 1010.2 |
| 20260504014601 | 47 | 167 | 3.0 | 7.0 | 0.00 | 0.00 | 0.00 | 100 | 1010.2 |
| 20260504013116 | 48 | 165 | 4.0 | 8.0 | 0.00 | 0.00 | 0.00 | 100 | 1010.3 |
| 20260504011600 | 48 | 148 | 4.0 | 9.0 | 0.00 | 0.00 | 0.00 | 100 | 1010.3 |
| 20260504010105 | 48 | 188 | 5.0 | 10.0 | 0.00 | 0.00 | 0.00 | 100 | 1010.3 |
| 20260504004608 | 49 | 150 | 4.0 | 9.0 | 0.00 | 0.00 | 0.00 | 100 | 1010.5 |
| 20260504003054 | 49 | 161 | 3.0 | 7.0 | 0.00 | 0.00 | 0.00 | 100 | 1010.5 |
| 20260504001553 | 49 | 154 | 3.0 | 6.0 | 0.00 | 0.00 | 0.00 | 100 | 1010.6 |
| 20260504000051 | 50 | 143 | 5.0 | 10.0 | 0.00 | 0.00 | 0.00 | 100 | 1010.7 |
| 20260503234549 | 50 | 165 | 6.0 | 10.0 | 0.00 | 0.00 | 0.00 | 100 | 1010.9 |
| 20260503233048 | 50 | 148 | 5.0 | 11.0 | 0.00 | 0.00 | 0.00 | 100 | 1011.1 |